TimePDT,TemperatureF,Dew PointF,Humidity,Sea Level PressureIn,VisibilityMPH,Wind Direction,Wind SpeedMPH,Gust SpeedMPH,PrecipitationIn,Events,Conditions,WindDirDegrees,DateUTC
12:06 AM,57.2,55.4,94,30.09,10.0,ENE,2.3,-,N/A,,Light Drizzle,70,2013-08-03 07:06:00
12:30 AM,57.2,55.4,94,30.09,10.0,NE,2.3,-,N/A,,Light Drizzle,50,2013-08-03 07:30:00
12:58 AM,57.2,55.2,93,30.09,10.0,NNE,3.5,-,0.01,Rain,Light Rain,20,2013-08-03 07:58:00
1:27 AM,57.2,55.4,94,30.09,10.0,NE,3.5,-,N/A,,Overcast,40,2013-08-03 08:27:00
1:31 AM,57.2,55.4,94,30.09,10.0,NE,4.6,-,N/A,,Light Drizzle,40,2013-08-03 08:31:00
1:53 AM,57.2,55.4,94,30.09,9.0,NE,4.6,-,N/A,,Light Drizzle,40,2013-08-03 08:53:00
1:58 AM,57.4,56.3,96,30.09,9.0,NE,4.6,-,0.00,,Light Drizzle,50,2013-08-03 08:58:00
2:15 AM,57.2,57.2,100,30.09,10.0,NE,4.6,-,N/A,Rain,Light Rain,40,2013-08-03 09:15:00
2:26 AM,57.2,57.2,100,30.09,10.0,ENE,3.5,-,N/A,,Overcast,60,2013-08-03 09:26:00
2:58 AM,57.2,56.8,99,30.09,10.0,ENE,4.6,-,0.00,,Overcast,60,2013-08-03 09:58:00
3:01 AM,57.2,57.2,100,30.09,10.0,ENE,4.6,-,N/A,,Overcast,60,2013-08-03 10:01:00
3:12 AM,57.2,57.2,100,30.09,10.0,NE,3.5,-,N/A,,Overcast,50,2013-08-03 10:12:00
3:18 AM,57.2,57.2,100,30.09,10.0,NE,3.5,-,N/A,,Overcast,50,2013-08-03 10:18:00
3:55 AM,57.2,57.2,100,30.09,10.0,NE,2.3,-,N/A,Rain,Light Rain,50,2013-08-03 10:55:00
3:58 AM,56.8,56.5,99,30.09,10.0,NE,1.2,-,0.00,Rain,Light Rain,40,2013-08-03 10:58:00
4:10 AM,57.2,57.2,100,30.09,10.0,NE,2.3,-,N/A,Rain,Light Rain,40,2013-08-03 11:10:00
4:21 AM,57.2,57.2,100,30.09,10.0,NE,3.5,-,N/A,Rain,Light Rain,50,2013-08-03 11:21:00
4:32 AM,57.2,57.2,100,30.09,10.0,NE,2.3,-,N/A,Rain,Light Rain,40,2013-08-03 11:32:00
4:49 AM,57.2,57.2,100,30.10,10.0,NE,3.5,-,N/A,Rain,Light Rain,50,2013-08-03 11:49:00
4:58 AM,57.0,56.7,99,30.10,10.0,NE,4.6,-,0.01,Rain,Light Rain,40,2013-08-03 11:58:00
5:15 AM,57.2,57.2,100,30.10,10.0,NNE,3.5,-,N/A,Rain,Light Rain,20,2013-08-03 12:15:00
5:18 AM,57.2,57.2,100,30.10,10.0,NNE,4.6,-,N/A,,Mostly Cloudy,20,2013-08-03 12:18:00
5:32 AM,57.2,57.2,100,30.10,10.0,NNE,3.5,-,N/A,,Light Drizzle,20,2013-08-03 12:32:00
5:52 AM,57.2,57.2,100,30.10,10.0,NNE,4.6,-,N/A,,Overcast,20,2013-08-03 12:52:00
5:55 AM,57.2,57.2,100,30.10,10.0,NNE,4.6,-,N/A,,Overcast,20,2013-08-03 12:55:00
5:58 AM,56.8,56.5,99,30.11,10.0,NNE,3.5,-,0.00,,Overcast,30,2013-08-03 12:58:00
6:36 AM,57.2,57.2,100,30.12,10.0,ENE,3.5,-,N/A,Rain,Light Rain,60,2013-08-03 13:36:00
6:40 AM,57.2,55.4,94,30.12,10.0,ENE,3.5,-,N/A,Rain,Light Rain,60,2013-08-03 13:40:00
6:41 AM,57.2,55.4,94,30.12,10.0,NE,3.5,-,N/A,Rain,Light Rain,50,2013-08-03 13:41:00
6:45 AM,57.2,55.4,94,30.12,10.0,NE,3.5,-,N/A,,Light Drizzle,50,2013-08-03 13:45:00
6:49 AM,57.2,55.4,94,30.12,10.0,NE,4.6,-,N/A,,Overcast,50,2013-08-03 13:49:00
6:51 AM,57.2,55.4,94,30.12,10.0,NE,4.6,-,N/A,,Overcast,50,2013-08-03 13:51:00
6:58 AM,57.2,56.3,97,30.12,10.0,ENE,3.5,-,0.00,,Overcast,70,2013-08-03 13:58:00
7:21 AM,57.2,57.2,100,30.12,10.0,NE,3.5,-,N/A,,Overcast,50,2013-08-03 14:21:00
7:57 AM,59.0,57.2,94,30.12,10.0,NE,1.2,-,N/A,,Overcast,50,2013-08-03 14:57:00
7:58 AM,59.0,57.2,94,30.12,10.0,ENE,1.2,-,N/A,,Overcast,70,2013-08-03 14:58:00
8:43 AM,59.0,57.2,94,30.13,10.0,North,2.3,-,N/A,,Overcast,360,2013-08-03 15:43:00
8:51 AM,59.0,57.2,94,30.13,10.0,East,2.3,-,N/A,,Overcast,90,2013-08-03 15:51:00
8:58 AM,59.4,56.8,91,30.13,10.0,Variable,2.3,-,N/A,,Overcast,0,2013-08-03 15:58:00
9:15 AM,59.0,55.4,88,30.13,10.0,Calm,Calm,-,N/A,,Overcast,0,2013-08-03 16:15:00
9:58 AM,60.8,55.9,84,30.13,10.0,ESE,2.3,-,N/A,,Overcast,110,2013-08-03 16:58:00
10:41 AM,62.6,55.4,77,30.13,10.0,East,3.5,-,N/A,,Overcast,100,2013-08-03 17:41:00
10:58 AM,62.4,56.1,80,30.14,10.0,Calm,Calm,-,N/A,,Overcast,0,2013-08-03 17:58:00
11:58 AM,64.4,56.1,74,30.14,10.0,Calm,Calm,-,N/A,,Overcast,0,2013-08-03 18:58:00
12:15 PM,66.2,55.4,68,30.14,10.0,West,4.6,-,N/A,,Overcast,260,2013-08-03 19:15:00
12:23 PM,66.2,55.4,68,30.14,10.0,Variable,3.5,-,N/A,,Overcast,0,2013-08-03 19:23:00
12:58 PM,67.8,55.8,65,30.13,10.0,Variable,1.2,-,N/A,,Partly Cloudy,0,2013-08-03 19:58:00
1:58 PM,67.8,55.0,64,30.12,10.0,SSW,4.6,-,N/A,,Scattered Clouds,200,2013-08-03 20:58:00
2:58 PM,70.0,54.0,57,30.11,10.0,Variable,2.3,-,N/A,,Partly Cloudy,0,2013-08-03 21:58:00
3:58 PM,71.6,52.9,52,30.09,10.0,Variable,1.2,-,N/A,,Mostly Cloudy,0,2013-08-03 22:58:00
4:58 PM,72.1,52.9,51,30.08,10.0,Variable,1.2,-,N/A,,Scattered Clouds,0,2013-08-03 23:58:00
5:58 PM,70.9,54.5,56,30.06,10.0,South,3.5,-,N/A,,Mostly Cloudy,180,2013-08-04 00:58:00
6:58 PM,72.3,53.4,51,30.06,10.0,SE,3.5,-,N/A,,Clear,130,2013-08-04 01:58:00
7:48 PM,69.8,55.4,60,30.07,10.0,SSE,3.5,-,N/A,Rain,Light Rain,150,2013-08-04 02:48:00
7:53 PM,69.8,55.4,60,30.07,10.0,SSE,3.5,-,N/A,,Clear,150,2013-08-04 02:53:00
7:58 PM,69.6,56.1,62,30.06,10.0,SE,3.5,-,0.00,,Clear,140,2013-08-04 02:58:00
8:58 PM,66.7,55.0,66,30.07,10.0,South,2.3,-,N/A,,Clear,170,2013-08-04 03:58:00
9:58 PM,66.6,54.0,64,30.06,10.0,SSE,1.2,-,N/A,,Clear,160,2013-08-04 04:58:00
10:58 PM,62.4,54.9,76,30.07,10.0,SSW,1.2,-,N/A,,Clear,210,2013-08-04 05:58:00
11:58 PM,60.4,54.9,82,30.07,10.0,NE,1.2,-,N/A,,Clear,40,2013-08-04 06:58:00